Regional Weather Roundup
Issued by NWS

Home | Current Version | Previous Version | Graphics & Text | Print | Product List | Glossary On
Versions: 1 2 3 4 5 6 7 8 9 10 11 12 13 14 15 16 17 18 19 20 21 22 23 24 25 26 27 28 29 30 31 32 33 34 35 36 37 38 39 40 41 42 43 44 45 46 47 48 49 50
095
ASUS45 KSLC 101410
RWRUT

UTAH REGIONAL WEATHER ROUNDUP
NATIONAL WEATHER SERVICE SALT LAKE CITY UT
700 AM MST WED FEB 10 2016

UTZ001>011-023>025-101500-

NORTHERN UTAH

CITY           SKY/WX    TMP DP  RH WIND       PRES   REMARKS
BRIGHAM CITY   CLOUDY    19  16  90 CALM      30.49R
HILL AFB         N/A     22  20  89 SE6       30.45S FOG     WCI  15
LOGAN          FOG        6   4  91 CALM      30.48S VSB 1/4
OGDEN          PTCLDY    23  20  88 S9        30.45F WCI  13
PROVO AIRPORT  FOG      N/A N/A N/A CALM      30.47R VSB 1/4
SALT LAKE CITY FOG       28  27  96 CALM      30.48R VSB 1/4
VERNAL         CLOUDY     9   5  84 CALM      30.48R FOG
WENDOVER       CLOUDY    28  27  93 CALM      30.48R
HEBER CITY     MOCLDY     5   1  85 CALM      30.44R FOG
WEST JORDAN    CLOUDY    27  27 100 SW3       30.48R VSB 1/4

$$

UTZ012>022-026-027-101500-

SOUTHERN/CENTRAL UTAH

CITY           SKY/WX    TMP DP  RH WIND       PRES   REMARKS
BLANDING       PTCLDY    26  15  60 NE7       30.51R WCI  19
BRYCE CANYON   PTCLDY     9   0  67 W12       30.47R WCI  -6
CEDAR CITY     MOCLDY    12   9  87 NE3       30.42S
DELTA          CLOUDY     6   4  90 CALM      30.47S
HANKSVILLE     CLOUDY    21  19  93 CALM      30.50R
MILFORD        FOG        7   3  84 S9        30.45R VSB 1/4 WCI  -7
MOAB/CYNLANDS  MOCLDY    20  17  88 CALM      30.46R FOG
PRICE          PTCLDY    23  16  74 SE3       30.43R
ST GEORGE      MOSUNNY   34  23  64 CALM      30.42S

$$

REGIONAL REPORTS     COLORADO/ARIZONA

CITY           SKY/WX    TMP DP  RH WIND       PRES   REMARKS
CRAIG, CO      FOG       -2  -5  87 CALM      30.45S VSB 1/4
GRAND JUNCTION CLOUDY    20  17  88 CALM      30.46S
RIFLE          CLOUDY    14   9  80 E3        30.49R
MONTROSE       CLOUDY    18  11  74 S6        30.49S WCI  10
CORTEZ         CLOUDY    16  12  84 NE6       30.46R WCI   7
PAGE, AZ       PTCLDY    31  25  78 CALM      30.44R
GRAND CANYON   PTCLDY    23  16  74 NE3       30.44R
KINGMAN        PTCLDY    41  21  44 CALM      30.31R
FLAGSTAFF      PTCLDY    20  14  77 CALM      30.45R

$$

REGIONAL REPORTS    NEVADA/IDAHO/WYOMING

CITY           SKY/WX    TMP DP  RH WIND       PRES   REMARKS
LAS VEGAS, NV  PTCLDY    49  27  42 SW3       30.27R
ELY            MOCLDY    11   3  70 S20       30.43R WCI  -7
ELKO           CLOUDY     6   4  91 NE6       30.47R WCI  -4
POCATELLO, ID  CLOUDY    13  11  92 NE5       30.42S WCI   5
BURLEY         CLEAR     23  21  92 NE3       30.36F
EVANSTON, WY   CLOUDY    25  12  58 S8        30.39S WCI  16
ROCK SPRINGS   CLOUDY    26  15  63 W5        30.35F WCI  20

$$




USA.gov is the U.S. government's official web portal to all federal, state and local government web resources and services.